Location: Ashburton
(39.0129°N, 77.1278°W)
Time: 05:33:58
(UTC+00:00)

Daily predictions for brighter satellites

Satellite Brightness Start Highest point End
(mag) Time Altitude Azimuth Time Altitude Azimuth Time Altitude Azimuth
Cosmos 1626 3.9 00:00:46 10° NE 00:02:52 14° ENE 00:04:58 10° ESE
STARLINK-1269 3.5 00:00:00 10° SW 00:04:00 75° SE 00:08:01 10° NE
Cosmos 2333 Rocket 4.4 00:02:22 10° WSW 00:07:19 30° WNW 00:12:16 10° N
FREGAT/IRIS 4.0 00:05:25 10° ESE 00:07:21 18° ENE 00:09:19 10° NNE
SL-16 R/B 2.8 00:03:17 10° SSE 00:08:19 34° ESE 00:13:21 10° NE
NOSS 0 Rocket 4.4 00:02:20 10° SSW 00:08:29 67° WNW 00:14:41 10° NNE
STARLINK-1200 3.5 00:04:34 10° SW 00:08:36 82° SE 00:12:38 10° NE
Atlas Centaur 2 4.3 00:05:52 10° WSW 00:09:00 14° SSW 00:11:47 10° S
STARLINK-1192 3.5 00:09:09 10° SW 00:13:10 89° SE 00:17:13 10° NE
Cosmos 1242 Rocket 3.5 00:09:50 10° NNW 00:13:11 48° W 00:16:32 10° S
CSL-04 Rocket 4.1 00:09:33 10° S 00:14:50 67° WSW 00:20:07 10° NNW
Cosmos 1805 3.2 00:11:43 10° S 00:15:36 82° E 00:19:32 10° N
Ariane Rocket 3.1 00:12:37 10° SSE 00:17:33 54° ENE 00:22:29 10° N
STARLINK-1244 3.6 00:13:50 10° SW 00:17:52 83° NW 00:21:55 10° NE
Cosmos 1553 Rocket 4.1 00:12:23 10° S 00:18:27 78° W 00:24:33 10° N
Cosmos 371 Rocket 3.3 00:13:43 10° NNW 00:18:34 87° ENE 00:23:24 10° SSE
CZ-4 R/B 3.6 00:16:46 10° SSW 00:20:09 27° W 00:23:29 10° NW
STARLINK-1138 3.7 00:18:26 10° SW 00:22:27 76° NW 00:26:31 10° NE
Resurs 01 Rocket 3.6 00:22:22 11° ENE 00:23:08 12° ENE 00:24:46 10° NE
BREEZE-M DEB (TANK) 3.2 00:11:31 10° WNW 00:23:25 75° NNE 00:25:58 17° ESE
Cosmos 1110 Rocket 4.1 00:21:57 10° N 00:27:07 54° ENE 00:32:12 10° SE
STARLINK-1143 3.8 00:23:07 10° WSW 00:27:08 70° NW 00:31:11 10° NE
Cosmos 2315 Rocket 4.3 00:23:55 10° SSE 00:29:49 45° E 00:35:48 10° NNE
USA 186 2.2 00:27:19 11° SSE 00:30:30 46° ENE 00:33:48 10° N
HJ-1C 3.9 00:27:48 10° S 00:31:05 61° W 00:34:25 10° NNW
Meteor 2-5 Rocket 3.7 00:27:56 10° N 00:33:38 89° WSW 00:39:11 10° S
Cosmos 1470 3.4 00:31:35 10° SSE 00:35:01 32° E 00:38:29 10° NNE
Cosmos 2297 4.3 00:30:32 10° N 00:35:48 38° ENE 00:39:10 20° ESE
H-2A R/B 2.1 00:31:55 10° SSE 00:37:14 70° ENE 00:42:27 10° N
ARGOS Delta rocket 4.0 00:32:28 10° SSE 00:37:27 84° E 00:42:44 10° N
SJ-6B 3.2 00:34:35 16° SE 00:37:33 44° ENE 00:41:28 10° N
Cosmos 1758 4.0 00:34:23 10° SSE 00:38:02 33° E 00:41:43 10° NNE
Cosmos 2237 Rocket 3.3 00:33:42 10° SW 00:39:04 46° WNW 00:44:30 10° N
STARLINK-1241 4.2 00:35:20 10° WSW 00:39:15 54° NW 00:43:12 10° NE
STARLINK-1239 4.4 00:39:53 10° WSW 00:43:47 50° NW 00:47:42 10° NE
BREEZE-M DEB (TANK) 2.8 00:37:08 10° WSW 00:45:15 75° NW 00:47:31 17° NE
Cosmos 332 Rocket 4.1 00:40:48 10° NNW 00:45:41 68° WSW 00:50:33 10° S
MOS 1 4.2 00:41:10 10° SSE 00:46:47 76° ENE 00:52:26 10° N
Cosmos 2278 Rocket 3.2 00:43:35 10° NW 00:49:00 47° WSW 00:54:25 10° S
Meteor 1-24 Rocket 3.6 00:46:38 10° N 00:52:10 84° W 00:57:31 10° S
CZ-2C R/B 3.1 00:48:48 10° NNE 00:53:30 34° E 00:55:45 24° SE
Cosmos 1455 Rocket 3.7 00:50:42 10° SSW 00:54:56 57° W 00:59:14 10° N
ARGOS 3.1 00:50:15 10° SSE 00:55:40 85° ENE 01:01:06 10° NNW
Cosmos 1733 4.3 00:52:26 10° SSW 00:56:04 46° W 00:59:43 10° N
STARLINK-1083 4.5 00:55:44 10° NW 00:59:26 34° NNE 01:00:19 30° ENE
Cosmos 1709 Rocket 3.9 00:55:33 10° N 01:01:47 80° E 01:07:54 10° S
Cosmos 1269 Rocket 4.4 00:56:42 10° SSW 01:01:57 66° WNW 01:07:14 10° NNE
SL-14 R/B 3.2 00:58:37 10° N 01:02:42 89° E 01:05:03 24° S
ATLAS 5 CENTAUR R/B 4.4 00:57:05 10° S 01:02:53 20° SE 01:04:00 20° SE
STARLINK-1125 4.4 01:00:12 10° NW 01:03:57 36° NNE 01:04:39 34° ENE
Cosmos 1302 Rocket 4.1 00:59:37 10° N 01:04:48 55° ENE 01:06:40 36° SE
Meteor 2-15 4.3 01:00:10 10° S 01:06:13 79° E 01:12:17 10° N
STARLINK-1066 3.5 01:03:29 10° NW 01:06:21 46° NNE 01:06:21 46° NNE
STARLINK-1081 3.5 01:03:56 10° NW 01:06:42 45° NNE 01:06:42 45° NNE
Cosmos 1626 Rocket 3.5 01:02:46 10° N 01:07:08 64° E 01:08:26 42° SE
STARLINK-1070 3.5 01:04:22 10° NW 01:07:07 45° NNE 01:07:07 45° NNE
STARLINK-1069 3.5 01:04:47 10° NW 01:07:35 46° NNE 01:07:35 46° NNE
STARLINK-1109 4.3 01:04:16 10° NW 01:08:04 39° NNE 01:08:35 37° NE
Cosmos 2251 Rocket 4.0 01:08:23 37° E 01:08:23 37° E 01:13:10 10° NE
STARLINK-1085 3.5 01:05:14 10° NW 01:08:02 47° NNE 01:08:02 47° NNE
STARLINK-1086 3.5 01:05:44 10° NW 01:08:26 46° NNE 01:08:26 46° NNE
STARLINK-1095 3.5 01:06:09 10° NW 01:08:51 46° NNE 01:08:51 46° NNE
STARLINK-1077 3.5 01:06:37 10° NW 01:09:18 46° N 01:09:18 46° N
MetOp-A 4.1 01:07:36 31° SE 01:10:07 63° ENE 01:15:25 10° N
STARLINK-1075 3.5 01:07:03 10° NW 01:09:43 46° N 01:09:43 46° N
STARLINK-1093 3.5 01:07:29 10° NW 01:10:12 48° N 01:10:12 48° N
STARLINK-1074 3.5 01:07:56 10° NW 01:10:38 48° N 01:10:38 48° N
STARLINK-1087 3.5 01:08:24 10° NW 01:11:02 47° N 01:11:02 47° N
ISS -1.0 01:10:47 10° N 01:11:53 11° N 01:12:34 11° NNE
STARLINK-1088 3.5 01:08:51 10° NW 01:11:28 47° N 01:11:28 47° N
STARLINK-1115 3.5 01:09:16 10° NW 01:11:56 48° N 01:11:56 48° N
STARLINK-1091 4.1 01:08:48 10° NW 01:12:39 42° NE 01:12:59 41° NE
STARLINK-1076 3.5 01:09:43 10° NW 01:12:21 48° N 01:12:21 48° N
STARLINK-1092 3.5 01:10:11 10° NW 01:12:48 48° N 01:12:48 48° N
STARLINK-1080 3.6 01:10:39 10° NW 01:13:12 47° N 01:13:12 47° N
Cosmos 2074 Rocket 4.5 01:07:58 10° N 01:13:46 38° ENE 01:14:44 36° E
STARLINK-1090 3.6 01:11:06 10° NW 01:13:38 47° N 01:13:38 47° N
Cosmos 1602 Rocket 3.6 01:09:58 10° N 01:14:23 59° E 01:14:52 55° ESE
STARLINK-1089 3.6 01:11:33 10° NW 01:14:04 46° N 01:14:04 46° N
STARLINK-1107 3.6 01:11:59 10° NW 01:14:29 46° N 01:14:29 46° N
CZ-2C R/B 3.9 01:12:08 10° N 01:16:55 77° WNW 01:21:34 10° SSW
Cosmos 2369 Rocket 3.3 01:12:53 10° N 01:17:39 27° ENE 01:17:55 26° ENE
CZ-2C R/B 3.7 01:14:18 10° S 01:19:20 52° W 01:24:10 10° NNW
SL-24 R/B 4.1 01:15:38 10° N 01:20:12 80° WNW 01:23:40 14° SSW
Cosmos 1953 3.5 01:22:18 30° NNE 01:22:18 30° NNE 01:24:30 10° NNE
USA 234 3.9 01:15:42 10° NE 01:22:03 55° NW 01:28:22 10° WSW
Meteor 1-21 Rocket 4.3 01:18:15 10° N 01:23:41 53° ENE 01:24:22 50° ESE
STARLINK-1072 3.9 01:23:53 10° NW 01:27:27 52° NNE 01:27:27 52° NNE
IRIDIUM 104 4.2 01:24:32 10° N 01:29:46 74° E 01:30:46 57° SSE
STARLINK-1096 4.0 01:28:13 10° NW 01:31:38 53° N 01:31:38 53° N
SPOT 3 Rocket 3.8 01:33:34 32° S 01:35:58 67° WSW 01:41:11 10° NNW
STARLINK-1079 4.1 01:32:34 10° NW 01:35:50 53° NNW 01:35:50 53° NNW
Cosmos 1626 3.9 01:34:56 10° NNW 01:38:12 30° W 01:39:38 22° SW
IRIDIUM 114 4.2 01:33:41 10° N 01:38:56 90° E 01:39:54 60° S
STARLINK-1116 4.2 01:36:56 10° NW 01:40:03 50° NNW 01:40:03 50° NNW
Cosmos 1943 Rocket 2.3 01:40:42 10° NNW 01:45:50 56° NE 01:45:50 56° NE
IRIDIUM 103 4.4 01:42:52 10° N 01:48:05 74° W 01:49:04 57° SSW
TSX-5 4.3 01:43:18 10° NNW 01:47:47 66° NW 01:47:47 66° NW
SL-16 R/B 3.9 01:47:19 10° WSW 01:52:22 32° WNW 01:57:26 10° N
Resurs 1-3 4.3 01:53:28 49° WSW 01:53:36 49° W 01:57:52 10° NNW
Meteor 2-10 4.1 01:58:38 80° WNW 01:58:38 80° WNW 02:04:01 10° N
Resurs 01 Rocket 2.3 01:59:55 51° NW 01:59:55 51° NW 02:03:26 10° NNW
MOS 1 Rocket 4.3 01:57:28 10° N 02:02:32 51° WNW 02:06:28 17° SW
Cosmos 2184 Rocket 3.9 01:57:23 10° N 02:03:45 89° W 02:04:08 80° S
Spot 2 Rocket 4.3 02:11:05 45° N 02:11:05 45° N 02:14:37 10° N
Cosmos 2154 Rocket 4.3 02:18:09 10° N 02:23:24 63° N 02:23:24 63° N
CZ-2C R/B 4.5 02:29:21 10° NNW 02:33:38 27° WNW 02:37:17 13° WSW
Terra 4.3 02:41:58 14° N 02:41:58 14° N 02:42:43 10° N
Cosmos 2369 Rocket 3.8 02:56:28 10° NW 02:59:43 31° WNW 02:59:43 31° WNW
ATLAS 2AS CENTAUR R/B 3.7 02:57:53 10° NNW 03:03:21 43° N 03:03:21 43° N
CZ-2D R/B 4.4 06:59:30 10° N 07:00:58 19° N 07:00:58 19° N
Resurs 1-4 Rocket 4.5 07:06:49 10° N 07:08:02 17° N 07:08:02 17° N
ADEOS II 4.1 07:14:32 10° NNE 07:16:41 24° NNE 07:16:41 24° NNE
ARIANE 5 R/B 4.5 07:20:04 10° NNE 07:22:32 26° NE 07:22:32 26° NE
Cosmos 2360 Rocket 4.3 07:31:00 10° NNW 07:32:28 18° N 07:32:28 18° N
USA 267 4.0 07:30:44 10° NE 07:35:57 45° N 07:35:57 45° N
IDEFIX/ARIANE 42P 4.1 07:46:44 10° NE 07:51:14 29° E 07:51:16 29° E
Cosmos 2285 Rocket 4.3 07:54:23 64° ENE 07:54:23 64° ENE 07:59:57 10° NNE
Cosmos 2346 Rocket 4.5 08:08:13 76° ENE 08:08:13 76° ENE 08:14:07 10° N
USA 234 3.3 08:02:51 10° ESE 08:09:20 73° NE 08:15:52 10° NW
Cosmos 2034 Rocket 4.0 08:05:02 10° N 08:11:26 81° E 08:11:37 80° ESE
Cosmos 1898 Rocket 4.0 08:12:54 55° ENE 08:12:54 55° ENE 08:17:14 10° NNE
Cosmos 1937 Rocket 4.3 08:12:27 44° ESE 08:12:31 44° ESE 08:17:28 10° NNE
Meteor 1-27 Rocket 3.9 08:15:05 69° NNE 08:15:05 69° NNE 08:20:04 10° N
COSMOS 2428 3.7 08:16:12 10° N 08:21:39 44° ENE 08:27:04 10° SE
SJ 16-02 2.6 08:28:36 36° N 08:28:36 36° N 08:31:16 10° NNE
Meteor 1-11 Rocket 3.7 08:21:36 10° N 08:27:17 80° NW 08:27:17 80° NW
CZ-4B R/B 3.5 08:31:19 28° NE 08:31:19 28° NE 08:33:42 10° N
Cosmos 2322 3.6 08:25:00 10° NNW 08:30:45 90° WSW 08:31:30 69° SSE
Cosmos 2333 4.0 08:28:53 10° NNW 08:34:31 89° ENE 08:40:08 10° SSE
Cosmos 2227 Rocket 4.3 08:30:24 10° SSE 08:34:35 22° E 08:38:46 10° NE
Cosmos 2219 Rocket 2.4 08:35:59 10° NNW 08:41:35 69° ENE 08:47:07 10° SSE
COBE Rocket 3.8 08:42:50 48° SSE 08:44:13 81° ENE 08:49:03 10° N
Cosmos 1680 Rocket 4.1 08:39:35 10° NNW 08:43:09 43° NW 08:43:09 43° NW
BREEZE-M DEB (TANK) 3.0 08:47:24 48° SE 08:47:24 48° SE 08:49:40 10° ENE
Cosmos 990 Rocket 4.0 08:47:47 59° NW 08:47:47 59° NW 08:52:36 10° N
CZ-2C R/B 4.1 08:44:21 10° N 08:46:46 33° NNW 08:46:46 33° NNW
Okean 1-7 3.9 08:47:59 29° SSE 08:49:48 47° E 08:54:00 10° NNE
deb Chang Zheng 4 3.7 08:46:38 10° N 08:50:24 65° NNW 08:50:24 65° NNW
STARLINK-1014 4.4 08:52:14 41° SE 08:52:14 41° SE 08:55:53 10° ENE
Cosmos 1689 Rocket 4.4 08:50:02 11° SE 08:52:26 25° ENE 08:54:59 10° NNE
STARLINK-1025 4.2 08:53:12 47° SE 08:53:19 47° SE 08:57:17 10° ENE
Cosmos 158 Rocket 3.8 08:49:14 10° NNW 08:54:31 75° WSW 08:59:37 10° S
Geosat 4.1 08:51:36 10° NNE 08:56:31 56° WNW 08:56:54 55° W
CBERS 1 LM4 rocket 4.4 08:52:22 10° NNE 08:57:13 79° ESE 08:59:07 38° S
Cosmos 2242 Rocket 3.5 08:57:33 73° W 08:57:40 74° W 09:02:16 10° N
STARLINK-1017 4.0 08:58:00 51° SSE 08:58:17 52° SE 09:02:19 10° ENE
ADEOS II 3.9 08:55:23 10° NNW 08:57:38 17° NW 08:57:38 17° NW
Lacrosse 5 rocket 1.9 08:59:42 42° NNW 08:59:42 42° NNW 09:02:52 10° NNE
Timation 2 Rocket 4.1 08:57:09 43° SW 08:59:32 74° WNW 09:06:24 10° NNE
Cosmos 2333 Rocket 2.0 08:57:34 10° NNW 09:03:12 73° WSW 09:08:48 10° SSE
ARIANE 5 R/B 4.0 08:59:44 10° NNW 09:02:52 22° NW 09:02:52 22° NW
STARLINK-81 3.7 09:07:34 55° S 09:08:07 62° SE 09:12:06 10° NE
ASTRO E2 4.3 09:08:51 22° SSE 09:08:51 22° SSE 09:11:44 10° ESE
STARLINK-54 3.5 09:09:25 61° SSW 09:09:58 72° SE 09:13:59 10° NE
STARLINK-77 3.7 09:10:46 55° S 09:11:26 67° SE 09:15:27 10° NE
SeaSat 1 2.4 09:07:25 10° SSE 09:12:21 88° ENE 09:17:19 10° NNW
STARLINK-25 3.6 09:12:22 54° SSW 09:13:06 70° SE 09:17:07 10° NE
STARLINK-1048 3.7 09:12:21 53° SSW 09:13:11 72° SE 09:17:19 10° NE
MSX 3.7 09:08:30 10° N 09:14:15 71° WNW 09:17:39 25° SSW
STARLINK-1023 3.6 09:13:23 55° SW 09:14:15 82° SE 09:18:27 10° NE
STARLINK-71 3.5 09:14:13 58° SSW 09:14:56 81° SE 09:18:59 10° NE
NOSS 0 Rocket 4.2 09:09:11 10° NNW 09:15:20 71° ENE 09:21:27 10° SSE
STARLINK-79 3.5 09:15:31 53° SSW 09:16:22 75° SE 09:20:24 10° NE
STARLINK-78 3.5 09:17:09 52° SSW 09:18:04 79° SE 09:22:06 10° NE
STARLINK-1049 3.6 09:17:06 49° SW 09:18:08 79° SE 09:22:17 10° NE
Okean 1 3.1 09:17:10 41° SSW 09:18:28 79° W 09:22:26 10° N
STARLINK-1306 4.4 09:19:22 24° N 09:19:22 24° N 09:21:00 10° NNE
STARLINK-57 3.4 09:18:52 51° SW 09:19:48 86° SE 09:23:51 10° NE
STARLINK-49 3.5 09:20:19 49° SW 09:21:21 84° SE 09:25:23 10° NE
Cosmos 1975 3.7 09:18:18 10° N 09:22:13 49° E 09:26:06 10° SSE
STARLINK-27 3.4 09:21:53 47° SW 09:22:59 87° SE 09:27:01 10° NE
STARLINK-1051 3.5 09:21:54 45° SW 09:23:07 87° SE 09:27:16 10° NE
STARLINK-74 3.4 09:23:28 45° SW 09:24:38 89° SE 09:28:40 10° NE
Cosmos 1743 2.6 09:22:15 10° N 09:26:07 74° W 09:29:59 10° S
Cosmos 1515 4.1 09:22:34 11° S 09:26:09 63° E 09:29:55 10° NNE
STARLINK-39 3.4 09:25:04 44° SW 09:26:18 88° NW 09:30:20 10° NE
SL-4 R/B 2.7 09:23:39 14° NW 09:26:56 54° NE 09:31:12 10° ESE
STARLINK-31 3.4 09:26:42 42° SW 09:27:58 84° NW 09:32:01 10° NE
STARLINK-69 3.5 09:28:31 41° WSW 09:29:49 75° NW 09:33:51 10° NE
Cosmos 1544 4.4 09:26:25 10° N 09:29:51 41° E 09:33:18 10° SSE
IDEFIX/ARIANE 42P 3.4 09:26:14 10° N 09:30:46 31° WNW 09:32:05 28° W
STARLINK-21 3.4 09:29:55 39° WSW 09:31:19 78° NW 09:35:21 10° NE
STARLINK-1028 3.5 09:31:29 36° WSW 09:33:05 77° NW 09:37:14 10° NE
STARLINK-45 3.5 09:31:46 37° WSW 09:33:11 69° NW 09:37:12 10° NE
STARLINK-1007 3.6 09:32:20 35° WSW 09:34:01 73° NW 09:38:13 10° NE
Cosmos 2237 Rocket 2.6 09:28:35 10° NNW 09:34:15 67° ENE 09:39:53 10° SSE
STARLINK-70 3.5 09:33:13 36° WSW 09:34:43 69° NW 09:38:44 10° NE
PSLV R/B 4.0 09:31:17 10° N 09:35:22 42° WNW 09:37:07 28° WSW
H-2A R/B 3.9 09:31:43 10° NNE 09:35:39 37° E 09:39:25 10° SSE
GPS 2-04 Rocket1 2.9 09:34:41 36° SW 09:35:43 47° S 09:39:16 10° ESE
USA 238 DEB 3.9 09:29:38 10° SSW 09:36:05 69° ESE 09:42:52 10° NE
USA 238 3.9 09:29:42 10° SSW 09:36:13 69° ESE 09:42:59 10° NE
STARLINK-76 3.5 09:34:40 34° WSW 09:36:16 71° NW 09:40:18 10° NE
STARLINK-23 3.5 09:36:16 33° WSW 09:37:56 68° NW 09:41:57 10° NE
STARLINK-1021 3.6 09:36:15 32° WSW 09:38:03 70° NW 09:42:11 10° NE
STARLINK-32 3.6 09:37:52 32° WSW 09:39:36 66° NW 09:43:37 10° NE
CZ-2C R/B 2.2 09:35:23 10° N 09:39:58 68° WNW 09:44:29 10° SSW
STARLINK-40 3.6 09:39:27 30° WSW 09:41:15 64° NW 09:45:15 10° NE
STARLINK-1286 4.4 09:41:25 18° NW 09:41:39 19° NNW 09:43:42 10° NNE
STARLINK-44 3.6 09:41:02 29° WSW 09:42:54 62° NW 09:46:54 10° NE
STARLINK-1019 3.7 09:41:03 28° WSW 09:43:03 64° NW 09:47:10 10° NE
Cosmos 1782 Rocket 3.5 09:39:30 10° NNW 09:43:48 61° W 09:48:04 10° S
CZ-4B R/B 3.9 09:40:14 10° NNE 09:44:17 51° E 09:48:31 10° S
ALOS 3.9 09:40:03 10° NNE 09:44:21 36° E 09:48:39 10° SSE
STARLINK-37 3.7 09:42:47 28° WSW 09:44:41 56° NW 09:48:39 10° NE
STARLINK-36 3.7 09:44:12 27° WSW 09:46:12 58° NW 09:50:11 10° NE
Cosmos 2219 3.3 09:42:24 16° SW 09:46:49 59° WNW 09:52:31 10° NNE
STARLINK-1012 3.8 09:45:49 25° WSW 09:48:02 58° NW 09:52:08 10° NE
STARLINK-68 3.9 09:46:04 25° WSW 09:48:05 51° NW 09:52:02 10° NE
Cosmos 1703 Rocket 4.4 09:46:28 22° WSW 09:48:22 31° WNW 09:52:22 10° NNW
STARLINK-63 3.9 09:47:31 25° WSW 09:49:38 52° NW 09:53:35 10° NE
Cosmos 1634 Rocket 4.4 09:44:24 10° NNW 09:49:59 37° W 09:55:34 10° SSW
Cosmos 1484 Rocket 3.4 09:47:07 10° NNE 09:50:57 56° E 09:54:40 10° S
STARLINK-35 3.8 09:48:58 24° WSW 09:51:11 53° NW 09:55:08 10° NE
Cosmos 2221 Rocket 3.6 09:46:51 10° S 09:51:20 86° E 09:55:48 10° N
USA 234 4.0 09:47:08 10° S 09:52:39 29° SW 09:58:12 10° WNW
STARLINK-51 3.9 09:50:35 23° WSW 09:52:51 51° NW 09:56:47 10° NE
Cosmos 2297 Rocket 2.2 09:47:42 10° SSW 09:53:20 69° WNW 09:59:01 10° NNE
Meteor 2-9 Rocket 4.3 09:47:54 10° N 09:53:46 85° W 09:59:38 10° S
PAYLOAD A 4.5 09:48:46 10° N 09:53:55 45° WNW 09:58:59 10° SW
STARLINK-30 3.9 09:52:10 22° WSW 09:54:31 49° NW 09:58:26 10° NE
ADEOS 4.0 09:51:13 10° N 09:56:08 43° WNW 10:01:02 10° SW
STARLINK-72 4.0 09:53:45 21° WSW 09:56:09 48° NW 10:00:04 10° NE
STARLINK-50 4.0 09:55:22 20° WSW 09:57:50 46° NW 10:01:44 10° NE
STARLINK-1026 4.0 09:55:23 20° WSW 09:58:00 49° NW 10:02:02 10° NE
STARLINK-59 4.1 09:57:04 19° W 09:59:36 43° NW 10:03:28 10° NE
Meteor 1-19 Rocket 4.4 09:54:08 10° SSW 09:59:47 55° WNW 10:05:19 10° N
STARLINK-56 4.1 09:58:32 18° W 10:01:09 44° NW 10:05:01 10° NE
COSMO-SKYMED 1 3.9 09:57:49 10° SE 10:01:55 44° ENE 10:06:03 10° N
Cosmos 2298 Rocket 4.3 09:57:12 10° SW 10:02:17 47° WNW 10:07:26 10° N
STARLINK-73 4.2 10:00:08 18° W 10:02:49 42° NW 10:06:40 10° NE
CZ-4B R/B 3.7 10:04:31 11° WNW 10:04:31 11° WNW 10:04:42 10° WNW
STARLINK-1013 4.2 10:00:11 17° WSW 10:03:01 45° NW 10:07:01 10° NE
Sich 1 Rocket 3.6 09:58:48 10° NNW 10:03:06 55° W 10:07:22 10° S
STARLINK-38 4.2 10:01:42 17° W 10:04:28 41° NW 10:08:18 10° NE
COSMOS 2428 3.7 10:01:07 10° NW 10:05:35 24° WSW 10:10:02 10° SSW
Cosmos 2150 Rocket 4.3 10:00:33 10° SW 10:05:42 49° WNW 10:10:59 10° N
STARLINK-65 4.2 10:03:17 16° W 10:06:06 40° NW 10:09:56 10° NE
NOSS 3-2 (A) 3.3 10:00:50 10° SW 10:06:26 78° WNW 10:12:48 10° NNE
STARLINK-53 4.3 10:05:01 15° W 10:07:54 38° NNW 10:11:41 10° NE
STARLINK-1009 4.3 10:04:57 15° W 10:08:00 41° NW 10:11:57 10° NE
Cosmos 389 Rocket 2.5 10:08:04 10° SSW 10:11:37 59° W 10:15:10 10° N
Okean O Rocket 4.4 10:08:37 10° NE 10:12:04 22° E 10:15:31 10° SSE
STARLINK-1015 4.4 10:09:43 14° W 10:12:59 38° NNW 10:16:53 10° NE
STARLINK-1033 4.4 10:11:16 10° SSW 10:15:16 50° SE 10:19:17 10° ENE
Okean 3 3.6 10:11:45 10° SSW 10:15:49 49° W 10:19:53 10° N
Cosmos 2151 Rocket 3.7 10:12:37 10° N 10:17:02 80° E 10:21:25 10° S
Okean 2 Rocket 3.1 10:13:25 10° NNW 10:17:52 66° W 10:22:19 10° S
Cosmos 2227 Rocket 2.5 10:12:46 10° SW 10:18:13 49° WNW 10:23:41 10° NNE
Cosmos 1048 Rocket 4.0 10:13:54 10° NNW 10:19:13 78° WSW 10:24:34 10° SSE
Cosmos 1674 Rocket 3.8 10:17:26 10° S 10:21:52 76° E 10:26:17 10° N
Cosmos 1125 Rocket 3.6 10:16:50 10° SSW 10:22:03 59° WNW 10:27:19 10° N
PSLV R/B 4.2 10:18:12 10° NNE 10:22:20 73° E 10:26:25 10° S
Cosmos 1092 Rocket 4.2 10:17:25 10° S 10:23:46 85° E 10:30:08 10° N
Cosmos 1689 Rocket 4.1 10:22:46 10° WSW 10:23:46 11° W 10:24:47 10° WNW
Cosmos 2219 Rocket 3.6 10:21:54 10° WNW 10:24:50 15° W 10:27:44 10° SW
STARLINK-1024 4.1 10:21:06 10° SW 10:25:11 62° SE 10:29:17 10° NE
SJ-12 3.9 10:22:06 10° NNE 10:26:14 87° WNW 10:30:18 10° SSW
Cosmos 494 Rocket 4.4 10:21:26 10° NNW 10:26:42 71° ENE 10:31:56 10° SSE
ATLAS CENTAUR R/B 1.7 10:27:32 10° W 10:29:08 24° NW 10:31:02 10° NNE
STARLINK-1035 3.9 10:26:03 10° SW 10:30:10 69° SE 10:34:19 10° NE
NOSS 3-2 (C) 3.4 10:25:52 10° SW 10:31:31 83° WNW 10:37:54 10° NNE
Chandra Rocket (1) 4.2 10:23:06 10° WSW 10:32:16 29° S 10:36:01 10° SE
Meteor 1-12 Rocket 4.4 10:26:49 10° NNW 10:32:47 68° W 10:38:37 10° S
Meteor 1-31 Rocket 3.7 10:29:44 10° N 10:33:10 29° WNW 10:36:34 10° SW
ATLAS 5 CENTAUR R/B 1.7 10:27:23 10° SW 10:33:11 86° SE 10:35:36 10° NE
Cosmos 1980 4.3 10:29:13 10° NW 10:34:18 35° WSW 10:39:20 10° SSW
STARLINK-1032 3.8 10:31:00 10° SW 10:35:07 77° SE 10:39:15 10° NE
